Regional Weather Roundup
Issued by NWS Boston, MA

Home | Current Version | Previous Version | Text Only | Print | Product List | Glossary On
Versions: 1 2 3 4 5 6 7 8 9 10 11 12 13 14 15 16 17 18 19 20 21 22 23 24 25 26 27 28 29 30 31 32 33 34 35 36 37 38 39 40 41 42 43 44 45 46 47 48 49
000
ASUS41 KBOX 281210
RWRBOX

REGIONAL WEATHER ROUNDUP
NATIONAL WEATHER SERVICE TAUNTON MA
800 AM EDT THU MAY 28 2015

NOTE:  "FAIR" INDICATES FEW OR NO CLOUDS BELOW 12,000 FEET WITH NO
SIGNIFICANT WEATHER AND/OR OBSTRUCTIONS TO VISIBILITY.  THE FOLLOWING
OBSERVATION LOCATIONS DO NOT REPORT PRESENT WEATHER...PROVINCETOWN...
SMITHFIELD...BLOCK ISLAND...KEENE...AND OXFORD.

MAZALL-281300-
EASTERN MASSACHUSETTS

CITY           SKY/WX    TMP DP  RH WIND       PRES   REMARKS
BOSTON         PTSUNNY   69  62  78 S12       30.14S
6HR MIN TEMP:  64; 6HR MAX TEMP:  69;

BEVERLY        PTSUNNY   72  63  73 SW10      30.12S
LAWRENCE       CLOUDY    71  64  78 SW9       30.14S
BEDFORD        PTSUNNY   71  64  78 SW9       30.12S
BLUE HILL        N/A     66  61  84 S10G21    30.16R
NORWOOD        MOSUNNY   69  63  81 S12       30.16R
MARSHFIELD     CLOUDY    66  63  88 SW10G20   30.18R
PLYMOUTH       CLOUDY    66  61  84 SW13      30.19R
TAUNTON        CLOUDY    66  60  81 SW9G20    30.18R
NEW BEDFORD    PTSUNNY   66  61  84 SW14G26   30.18R
$$

MAZALL-281300-
CAPE COD AND THE ISLANDS

CITY           SKY/WX    TMP DP  RH WIND       PRES   REMARKS
FALMOUTH       CLOUDY    66  61  82 SW18G25   30.20S
HYANNIS        CLOUDY    65  60  84 SW16G28   30.19R
CHATHAM        CLOUDY    64  60  87 SW13G21   30.21R
PROVINCETOWN   MOSUNNY   63  57  82 SW17      30.18R
NANTUCKET      CLOUDY    63  58  83 S12       30.22S
MARTHAS VNYRD  CLOUDY    63  59  87 SW14      30.22R
$$

MAZALL-281300-
CENTRAL AND WESTERN MASSACHUSETTS

CITY           SKY/WX    TMP DP  RH WIND       PRES   REMARKS
WORCESTER      PTSUNNY   68  62  81 SW10      30.17R
6HR MIN TEMP:  65; 6HR MAX TEMP:  68;

FITCHBURG      PTSUNNY   71  64  78 SW3       30.14R
ORANGE         CLOUDY    67  64  90 S5        30.14S
SPRINGFIELD    CLOUDY    66  64  93 S10       30.14R
WESTFIELD      CLOUDY    66  64  93 S9        30.14R FOG
NORTH ADAMS    SUNNY     69  65  86 VRB3      30.12S
PITTSFIELD     PTSUNNY   69  65  86 VRB3      30.14S
$$

RIZALL-281300-
RHODE ISLAND

CITY           SKY/WX    TMP DP  RH WIND       PRES   REMARKS
PROVIDENCE     PTSUNNY   67  61  81 SW12      30.19R
6HR MIN TEMP:  64; 6HR MAX TEMP:  67;

NEWPORT        CLOUDY    63  59  87 S9G18     30.19R
BLOCK ISLAND   PTSUNNY   61  57  88 SW14G20   30.21R
SMITHFIELD     CLOUDY   N/A N/A N/A SW3       30.18R
WESTERLY       CLOUDY    63  59  87 SW7       30.21R
$$

CTZALL-281300-
CONNECTICUT

CITY           SKY/WX    TMP DP  RH WIND       PRES   REMARKS
BRADLEY INTL   CLOUDY    68  64  87 S12       30.14S FOG
6HR MIN TEMP:  65; 6HR MAX TEMP:  68;

HARTFORD       CLOUDY    67  63  87 S10       30.15F
BRIDGEPORT     CLOUDY    65  61  87 S7        30.17S
DANBURY        CLOUDY    68  64  87 S5        30.17S FOG
GROTON         CLOUDY    62  58  86 SW7       30.19R
NEW HAVEN      CLOUDY    64  60  87 S5        30.18R
CHESTER        NOT AVBL
MERIDEN        CLOUDY    66  62  87 S9        30.17S
WILLIMANTIC    CLOUDY    66  62  87 S8        30.18R FOG
OXFORD         CLOUDY    66  61  82 S5        30.19  VSB 1/2
$$

MEZ002-015-021-024-NHZ003-005-008-011-012-014-VTZ005-008-281300-
NORTHERN NEW ENGLAND

CITY           SKY/WX    TMP DP  RH WIND       PRES   REMARKS
PORTLAND ME    PTSUNNY   72  65  78 S7        30.08S
6HR MIN TEMP:  64; 6HR MAX TEMP:  73;

BANGOR ME      MOSUNNY   65  60  84 S9        30.06R
CONCORD NH     MOSUNNY   71  64  78 S3        30.11R
MANCHESTER NH  PTSUNNY   72  64  76 S8        30.11R
NASHUA NH      PTSUNNY   73  66  78 VRB5      30.13R
PORTSMOUTH NH  PTSUNNY   71  64  78 SW8       30.10R
JAFFREY NH     CLOUDY    67  64  90 SW7       30.15S
KEENE NH       PTSUNNY   70  64  83 SW3       30.13S
BURLINGTON VT  LGT RAIN  70  64  81 S9        30.04R
MT. WASHINGTON FOG       50  50 100 W38         N/A  VSB 0
$$

NYZ052-076-281300-
EASTERN NEW YORK

CITY           SKY/WX    TMP DP  RH WIND       PRES   REMARKS
ALBANY         CLOUDY    70  65  84 S10       30.10S
6HR MIN TEMP:  68; 6HR MAX TEMP:  70;

NEW YORK CITY  PTSUNNY   72  63  73 S9        30.16R
6HR MIN TEMP:  67; 6HR MAX TEMP:  71;

$$

ANZALL-281300-
MARINE OBSERVATIONS

STATION/POSITION TIME  TEMP    WIND        PRES    VSBY  WAVE
                       AIR SEA DIR/SP/G                  HT/PER
                 (UTC) (F)     (DEG/KT/KT) (MB)    (MI)  (FT/S)
BOSTON BUOY      1150   58 53  220/ 12/ 14   N/A           2/ 5
BUZZARDS BAY     1200          220/ 14/ 15   N/A
NANTUCKET SOUND  1150   62 60  200/ 17/ 21   N/A           2/ 3
MASS BAY-STELLWA 1104   54 48  200/  8/  8   N/A    1 1/2  2/ 5
ISLE OF SHOALS   1200   65     230/ 13/ 14   N/A
S OF BLOCK IS    1108      55                N/A           4/ 5
$$

......................KEY.........................
  SKY/WX - SKY CONDITION/PRESENT WEATHER
  TMP    - TEMPERATURE IN FAHRENHEIT
  DWPT   - DEWPOINT IN FAHRENHEIT
  RH     - RELATIVE HUMIDITY IN PERCENT
  WIND   - DIRECTION AND SPEED IN MPH
  PRES   - MEAN SEA LEVEL PRESSURE IN INCHES OF HG
  WCI    - WIND CHILL INDEX
  VSB    - VISIBILITY IN MILES
  HX     - HEAT INDEX
  TC     - TEMPERATURE IN CELSIUS
  VRB    - VARIABLE WIND DIRECTION
  N/A    - NOT AVAILABLE



USA.gov is the U.S. government's official web portal to all federal, state and local government web resources and services.